Location: Rowland
(34.5359°N, 79.2929°W)
Time: 18:35:52
(UTC+00:00)

S-56A Canister/Altair - Pass Details

Date: 12 October 2022
Orbit: 638 x 2494 km, 38.9° (Epoch: 02 December)

Event Time Altitude Azimuth Distance (km) Brightness Sun altitude
Exits shadow 06:47:44 17° 87° (E) 3,052 10.8 -53.8°
Drops below altitude 10° 06:49:09 10° 89° (E) 3,454 11.1 -53.6°
Sets 06:51:38 0° 91° (E) 4,210 11.7 -53.2°
